Date String (YYYY-MM-DD hh:mm:ss) UTC,Instrument flags,absolute air pressure of the measurement (hPa),sample flow rate (lpm),inlet stack bypass flow (lpm),air temperature of the measurement (°C),ambient temperature measured by the external sensor (°C),aerosol sample conditioner tube jacket temperature (°C),OPC LED temperature (°C),internal box temperature (°C),relative humidity of the measurement (%),span deviation,mass concentration of particles derived from Lorenz-Mie calculation of OPC scattering (μg/m³),mass concentration of particles derived from Lorenz-Mie calculation of OPC scattering (μg/m³),mass concentration of particles derived from Lorenz-Mie calculation of OPC scattering (μg/m³)
DateTimeUTC,F1_M11,P_M11,Q1_M11,Q2_M11,T1_M11,T2_M11,T3_M11,T4_M11,T5_M11,U1_M11,ZSPAN_M11,X0_M11,X2_M11,X1_M11
2023-09-16 16:00:00,SystemResetWarning,0838.2,5.00,000.00,026.7,026.0,000.0,034.5,027.4,22.3,0000.0,0007.07,0004.33,0003.91
2023-09-16 16:01:00,SystemResetWarning,0838.2,4.99,000.00,027.7,026.5,000.0,035.9,029.4,23.1,-000.5,0007.08,0004.35,0003.92
2023-09-16 16:02:00,SystemResetWarning,0838.2,5.00,000.00,027.7,026.5,000.0,035.9,029.4,23.0,-000.6,0007.09,0004.36,0003.92
2023-09-16 16:03:00,SystemResetWarning,0838.2,5.01,000.00,027.7,026.5,000.0,035.9,029.4,22.7,-000.2,0007.21,0004.37,0003.92
2023-09-16 16:04:00,SystemResetWarning,0838.2,5.01,000.00,027.7,026.5,000.0,035.9,029.5,22.4,-000.1,0007.84,0004.37,0003.92
2023-09-16 16:05:00,SystemResetWarning,0838.2,5.00,000.00,027.7,026.5,000.0,035.9,029.5,21.7,-000.4,0008.33,0004.36,0003.91
2023-09-16 16:06:00,SystemResetWarning,0838.1,5.01,000.00,027.8,026.5,000.0,036.0,029.5,22.4,-001.0,0008.37,0004.36,0003.92
2023-09-16 16:07:00,SystemResetWarning,0838.1,5.00,000.00,027.8,026.6,000.0,036.0,029.5,22.0,-000.5,0008.31,0004.35,0003.93
2023-09-16 16:08:00,SystemResetWarning,0838.1,5.00,000.00,027.8,026.6,000.0,036.0,029.5,22.1,-000.6,0008.38,0004.37,0003.92
2023-09-16 16:09:00,SystemResetWarning,0838.1,4.99,000.00,027.8,026.6,000.0,036.0,029.5,22.6,-000.1,0009.31,0004.37,0003.92
2023-09-16 16:10:00,SystemResetWarning,0838.2,5.00,000.00,027.8,026.6,000.0,036.0,029.5,23.6,-000.0,0009.69,0004.38,0003.92
2023-09-16 16:11:00,SystemResetWarning,0838.2,5.00,000.00,027.8,026.6,000.0,036.0,029.5,22.8,0000.0,0009.67,0004.35,0003.93
2023-09-16 16:12:00,SystemResetWarning,0838.2,5.01,000.00,027.8,026.6,000.0,036.0,029.6,22.5,0000.0,0009.59,0004.30,0003.91
2023-09-16 16:13:00,SystemResetWarning,0838.2,5.01,000.00,027.9,026.6,000.0,036.1,029.6,22.0,0000.0,0009.46,0004.25,0003.89
2023-09-16 16:14:00,SystemResetWarning,0838.2,5.00,000.00,027.9,026.6,000.0,036.1,029.6,21.3,0000.0,0009.43,0004.23,0003.89
2023-09-16 16:15:00,SystemResetWarning,0838.2,5.00,000.00,027.9,026.6,000.0,036.1,029.6,22.2,0000.0,0009.09,0004.21,0003.87
2023-09-16 16:16:00,SystemResetWarning,0838.2,5.00,000.00,027.9,026.7,000.0,036.1,029.7,22.7,0000.0,0008.25,0004.19,0003.86
2023-09-16 16:17:00,SystemResetWarning,0838.2,5.00,000.00,027.9,026.7,000.0,036.1,029.7,21.7,0000.0,0008.51,0004.20,0003.85
2023-09-16 16:18:00,SystemResetWarning,0838.2,5.00,000.00,027.9,026.7,000.0,036.1,029.7,21.1,0000.0,0008.74,0004.20,0003.84
2023-09-16 16:19:00,SystemResetWarning,0838.2,5.00,000.00,027.9,026.7,000.0,036.1,029.7,21.7,0000.0,0008.69,0004.20,0003.84
2023-09-16 16:20:00,SystemResetWarning,0838.2,5.00,000.00,028.0,026.7,000.0,036.2,029.7,22.0,0000.0,0007.63,0004.16,0003.85
2023-09-16 16:21:00,SystemResetWarning,0838.1,5.00,000.00,028.0,026.7,000.0,036.2,029.7,21.7,0000.0,0007.17,0004.14,0003.84
2023-09-16 16:22:00,SystemResetWarning,0838.1,5.00,000.00,028.0,026.8,000.0,036.2,029.7,22.4,0000.0,0007.06,0004.13,0003.83
2023-09-16 16:23:00,SystemResetWarning,0838.1,5.01,000.00,028.0,026.8,000.0,036.2,029.7,21.4,0000.0,0007.20,0004.15,0003.82
2023-09-16 16:24:00,SystemResetWarning,0838.1,5.01,000.00,028.0,026.8,000.0,036.2,029.7,21.6,0000.0,0007.35,0004.20,0003.83
2023-09-16 16:25:00,SystemResetWarning,0838.0,5.00,000.00,028.0,026.8,000.0,036.2,029.8,22.2,0000.0,0007.83,0004.24,0003.84
2023-09-16 16:26:00,SystemResetWarning,0838.0,4.99,000.00,028.1,026.8,000.0,036.3,029.8,21.8,0000.0,0008.11,0004.28,0003.84
2023-09-16 16:27:00,SystemResetWarning,0838.0,5.00,000.00,028.1,026.9,000.0,036.3,029.8,22.1,0000.0,0008.18,0004.31,0003.86
2023-09-16 16:28:00,SystemResetWarning,0838.0,5.00,000.00,028.1,026.9,000.0,036.3,029.8,21.8,0000.0,0007.97,0004.31,0003.86
2023-09-16 16:29:00,SystemResetWarning,0838.0,5.01,000.00,028.1,026.9,000.0,036.3,029.8,21.9,0000.0,0007.80,0004.34,0003.87
2023-09-16 16:30:00,SystemResetWarning,0838.0,5.01,000.00,028.1,026.9,000.0,036.3,029.8,21.7,0000.0,0007.86,0004.36,0003.86
2023-09-16 16:31:00,SystemResetWarning,0838.0,5.00,000.00,028.1,026.9,000.0,036.3,029.8,21.4,0000.0,0007.91,0004.38,0003.86
2023-09-16 16:32:00,SystemResetWarning,0838.0,4.99,000.00,028.2,026.9,000.0,036.4,029.8,21.7,0000.0,0007.89,0004.38,0003.86
2023-09-16 16:33:00,SystemResetWarning,0838.0,5.00,000.00,028.2,026.9,000.0,036.4,029.9,21.8,0000.0,0008.00,0004.38,0003.85
2023-09-16 16:34:00,SystemResetWarning,0837.9,4.99,000.00,028.2,027.0,000.0,036.4,029.9,21.0,0000.0,0008.02,0004.38,0003.86
2023-09-16 16:35:00,SystemResetWarning,0837.9,5.00,000.00,028.2,027.0,000.0,036.4,029.9,21.4,0000.0,0007.93,0004.35,0003.86
2023-09-16 16:36:00,SystemResetWarning,0838.0,5.00,000.00,028.2,027.0,000.0,036.4,030.0,21.8,0000.0,0007.67,0004.36,0003.86
2023-09-16 16:37:00,SystemResetWarning,0838.0,5.00,000.00,028.2,027.0,000.0,036.4,030.0,21.2,0000.0,0007.44,0004.35,0003.86
2023-09-16 16:38:00,SystemResetWarning,0838.0,5.00,000.00,028.2,027.0,000.0,036.4,030.0,20.9,0000.0,0007.51,0004.38,0003.87
2023-09-16 16:39:00,SystemResetWarning,0838.0,5.00,000.00,028.3,027.0,000.0,036.5,030.0,21.1,0000.0,0007.53,0004.40,0003.88
2023-09-16 16:40:00,SystemResetWarning,0838.0,5.00,000.00,028.3,027.1,000.0,036.5,030.0,21.3,0000.0,0007.44,0004.37,0003.89
2023-09-16 16:41:00,SystemResetWarning,0837.9,5.00,000.00,028.3,027.1,000.0,036.5,030.0,21.0,0000.0,0007.43,0004.34,0003.89
2023-09-16 16:42:00,SystemResetWarning,0837.9,5.00,000.00,028.3,027.1,000.0,036.5,030.0,21.4,0000.0,0007.53,0004.36,0003.90
2023-09-16 16:43:00,SystemResetWarning,0838.0,4.99,000.00,028.3,027.1,000.0,036.5,030.0,21.4,0000.0,0007.69,0004.40,0003.91
2023-09-16 16:44:00,SystemResetWarning,0837.9,5.00,000.00,028.3,027.1,000.0,036.5,030.0,20.9,0000.0,0007.63,0004.43,0003.93
2023-09-16 16:45:00,SystemResetWarning,0838.0,5.01,000.00,028.3,027.1,000.0,036.6,030.1,20.0,0000.0,0007.61,0004.45,0003.94
2023-09-16 16:46:00,SystemResetWarning,0837.9,5.00,000.00,028.4,027.1,000.0,036.6,030.1,20.7,0000.0,0007.88,0004.47,0003.95
2023-09-16 16:47:00,SystemResetWarning,0838.0,5.01,000.00,028.4,027.1,000.0,036.6,030.1,20.6,0000.0,0008.01,0004.45,0003.97
2023-09-16 16:48:00,SystemResetWarning,0838.0,5.00,000.00,028.4,027.2,000.0,036.6,030.1,21.0,0000.0,0007.98,0004.44,0003.98
2023-09-16 16:49:00,SystemResetWarning,0838.0,5.00,000.00,028.4,027.2,000.0,036.6,030.1,21.0,0000.0,0007.96,0004.42,0003.98
2023-09-16 16:50:00,SystemResetWarning,0838.0,5.01,000.00,028.4,027.2,000.0,036.6,030.1,20.4,0000.0,0008.02,0004.44,0003.99
2023-09-16 16:51:00,SystemResetWarning,0838.0,5.00,000.00,028.4,027.2,000.0,036.7,030.2,20.5,0000.0,0008.32,0004.44,0003.99
2023-09-16 16:52:00,SystemResetWarning,0838.0,5.01,000.00,028.5,027.2,000.0,036.7,030.2,20.1,0000.0,0008.92,0004.45,0004.00
2023-09-16 16:53:00,SystemResetWarning,0838.0,5.00,000.00,028.5,027.2,000.0,036.7,030.2,20.0,0000.0,0009.12,0004.45,0004.00
2023-09-16 16:54:00,SystemResetWarning,0838.0,4.99,000.00,028.5,027.3,000.0,036.7,030.2,19.6,0000.0,0009.22,0004.44,0004.00
2023-09-16 16:55:00,SystemResetWarning,0838.0,5.00,000.00,028.5,027.3,000.0,036.7,030.2,19.9,0000.0,0009.19,0004.43,0004.00
2023-09-16 16:56:00,SystemResetWarning,0838.0,5.00,000.00,028.5,027.3,000.0,036.7,030.2,20.1,0000.0,0009.24,0004.40,0004.01
2023-09-16 16:57:00,SystemResetWarning,0838.0,5.00,000.00,028.5,027.3,000.0,036.8,030.2,19.7,0000.0,0009.47,0004.42,0004.00
2023-09-16 16:58:00,SystemResetWarning,0837.9,5.00,000.00,028.6,027.3,000.0,036.8,030.2,19.6,0000.0,0009.32,0004.43,0003.99
2023-09-16 16:59:00,SystemResetWarning,0838.0,5.00,000.00,028.6,027.4,000.0,036.8,030.3,19.6,0000.0,0009.34,0004.43,0003.98
